Weather History for Palma de Mallorca, Spain

Change the Weather History Date:

Wednesday, July 25, 2012

  Actual Average Record
Temperature  
Mean Temperature 73 °F -  
Max Temperature 86 °F 86 °F 100 °F (1996)
Min Temperature 60 °F 66 °F 59 °F (2011)
Cooling Degree Days 8    
Growing Degree Days 23 (Base 50)    
Moisture  
Dew Point 60 °F    
Average Humidity 60    
Maximum Humidity 88    
Minimum Humidity 28    
Precipitation  
Precipitation 0.00 in 0.02 in - ()
Sea Level Pressure  
Sea Level Pressure 30.01 in    
Wind  
Wind Speed 4 mph ()    
Max Wind Speed 18 mph    
Max Gust Speed -    
Visibility 11.1 miles    
Events      
Averages and records for this station are not official NWS values.
T = Trace of Precipitation, MM = Missing Value Source: Averaged Metar Reports

Daily Weather History Graph

Daily Weather History Graph

Search for Another Location

Airport:

Trip Planner

Search our weather history database for the weather conditions in past years. The results will help you decide how hot, cold, wet, or windy it might be!

Date:

Astronomy

Jul. 25, 2012 Rise Set
Actual Time 6:42 AM CEST 9:08 PM CEST
Civil Twilight 6:11 AM CEST 9:38 PM CEST
Nautical Twilight 5:33 AM CEST 10:16 PM CEST
Astronomical Twilight 4:51 AM CEST 10:58 PM CEST
Moon 1:28 PM CEST (7/25) No Moon Set
Length of Visible Light 15h 26m
Length of Day
14h 25m
Waxing Crescent, 39% of the Moon is Illuminated
Jul 25
Waxing Crescent
Jul 26
First Quarter
Aug 2
Full
Aug 9
Last Quarter
Aug 17
New

Hourly Weather History & Observations

Time (CEST) Temp. Heat Index Dew Point Humidity Pressure Visibility Wind Dir Wind Speed Gust Speed Precip Events Conditions
12:00 AM 69.8 °F - 59.0 °F 68% 30.04 in - Variable 1.2 mph - N/A   Clear
12:30 AM 68.0 °F - 59.0 °F 73% 30.01 in - Calm Calm - N/A   Clear
1:00 AM 68.0 °F - 57.2 °F 68% 30.01 in - ENE 2.3 mph - N/A   Clear
1:30 AM 66.2 °F - 57.2 °F 73% 30.01 in - Calm Calm - N/A   Clear
2:00 AM 65 °F - 54 °F 60% 30.02 in 12 mi ENE 2.3 mph - -  
2:00 AM 66.2 °F - 57.2 °F 73% 30.01 in - NE 1.2 mph - N/A   Clear
2:30 AM 64.4 °F - 57.2 °F 77% 30.01 in - NNE 2.3 mph - N/A   Clear
3:00 AM 66.2 °F - 57.2 °F 73% 30.01 in - Calm Calm - N/A   Clear
3:30 AM 64.4 °F - 57.2 °F 77% 30.01 in - Calm Calm - N/A   Clear
4:00 AM 62.6 °F - 57.2 °F 82% 30.01 in - NE 2.3 mph - N/A   Clear
4:30 AM 64.4 °F - 57.2 °F 77% 30.01 in - Calm Calm - N/A   Clear
5:00 AM 62.6 °F - 57.2 °F 82% 30.01 in - Calm Calm - N/A   Clear
5:30 AM 62.6 °F - 57.2 °F 82% 30.01 in - North 1.2 mph - N/A   Clear
6:30 AM 62.6 °F - 57.2 °F 82% 30.01 in - NE 3.5 mph - N/A   Clear
7:00 AM 60.8 °F - 57.2 °F 88% 30.01 in - Variable 1.2 mph - N/A   Clear
7:30 AM 64.4 °F - 59.0 °F 83% 30.01 in 6.2 mi Calm Calm - N/A   Partly Cloudy
8:00 AM 67 °F - 57 °F 62% 30.03 in 19 mi Calm Calm - -   Scattered Clouds
8:00 AM 68.0 °F - 59.0 °F 73% 30.01 in 6.2 mi Calm Calm - N/A   Partly Cloudy
8:30 AM 69.8 °F - 60.8 °F 73% 30.01 in 6.2 mi Calm Calm - N/A   Partly Cloudy
9:00 AM 75.2 °F - 62.6 °F 65% 30.01 in 6.2 mi NNE 1.2 mph - N/A   Partly Cloudy
9:30 AM 77.0 °F - 62.6 °F 61% 30.01 in 6.2 mi North 2.3 mph - N/A   Partly Cloudy
10:00 AM 78.8 °F - 60.8 °F 54% 30.01 in - NNE 3.5 mph - N/A   Clear
11:00 AM 82.4 °F 81.7 °F 55.4 °F 39% 30.01 in - SSW 1.2 mph - N/A   Clear
11:30 AM 84.2 °F 83.5 °F 57.2 °F 40% 30.01 in - SW 2.3 mph - N/A   Clear
12:00 PM 82.4 °F 82.5 °F 59.0 °F 45% 30.01 in - WSW 6.9 mph - N/A   Clear
12:30 PM 82.4 °F 83.4 °F 62.6 °F 51% 30.01 in - SW 8.1 mph - N/A   Clear
1:00 PM 82.4 °F 83.9 °F 64.4 °F 54% 30.01 in - WSW 12.7 mph - N/A   Clear
1:30 PM 84.2 °F 84.4 °F 60.8 °F 45% 30.01 in - WSW 11.5 mph - N/A   Clear
2:00 PM 86 °F - 58 °F 28% 30.01 in 19 mi SW 13.8 mph - -  
2:00 PM 86.0 °F 86.6 °F 62.6 °F 45% 30.01 in - WSW 11.5 mph - N/A   Clear
2:30 PM 86.0 °F 86.6 °F 62.6 °F 45% 30.01 in - WSW 15.0 mph - N/A   Clear
3:00 PM 84.2 °F 84.4 °F 60.8 °F 45% 30.01 in - SW 18.4 mph - N/A   Clear
3:30 PM 84.2 °F 83.8 °F 59.0 °F 42% 30.01 in - SSW 16.1 mph - N/A   Clear
4:00 PM 84.2 °F 85.0 °F 62.6 °F 48% 30.01 in - SW 15.0 mph - N/A   Clear
4:30 PM 84.2 °F 85.0 °F 62.6 °F 48% 29.98 in - SSW 10.4 mph - N/A   Clear
5:00 PM 84.2 °F 85.6 °F 64.4 °F 51% 29.98 in - SSW 8.1 mph - N/A   Clear
5:30 PM 82.4 °F 83.9 °F 64.4 °F 54% 29.98 in - SW 10.4 mph - N/A   Clear
6:00 PM 82.4 °F 83.4 °F 62.6 °F 51% 29.98 in - SW 11.5 mph - N/A   Clear
6:30 PM 82.4 °F 83.9 °F 64.4 °F 54% 29.98 in - South 8.1 mph - N/A   Clear
7:00 PM 82.4 °F 84.6 °F 66.2 °F 58% 29.98 in - SSE 9.2 mph - N/A   Clear
7:30 PM 84.2 °F 84.4 °F 60.8 °F 45% 29.98 in - South 9.2 mph - N/A   Clear
8:00 PM 83 °F - 57 °F 31% 29.98 in 19 mi South 9.2 mph - -  
8:00 PM 82.4 °F 82.9 °F 60.8 °F 48% 29.98 in - SSE 6.9 mph - N/A   Clear
10:30 PM 77.0 °F - 64.4 °F 65% 30.01 in - Variable 2.3 mph - N/A   Clear
11:00 PM 75.2 °F - 64.4 °F 69% 30.01 in - East 2.3 mph - N/A   Clear
11:30 PM 75.2 °F - 64.4 °F 69% 30.01 in - ENE 3.5 mph - N/A   Clear